Terminal Aerodrome Forecast
Issued by NWS Grand Forks, ND

Home | Current Version | Previous Version | Text Only | Print | Product List | Glossary Off
Versions: 1 2 3 4 5 6 7 8 9 10 11 12 13 14 15 16 17 18 19 20 21

762
FTUS43 KFGF 211127
TAFFAR
TAF
KFAR 211127Z 2112/2212 33024G34KT P6SM BKN025
     FM211700 33022G31KT P6SM SCT030
     FM211900 33017KT P6SM FEW050
     FM212200 32014KT P6SM FEW150
     FM220000 32009KT P6SM FEW250
     FM220500 29006KT P6SM FEW250
     FM220800 23004KT P6SM FEW250=

USA.gov is the U.S. government's official web portal to all federal, state and local government web resources and services.